Regional Weather Roundup
Issued by NWS

Home | Current Version | Previous Version | Text Only | Print | Product List | Glossary On
Versions: 1 2 3 4 5 6 7 8 9 10 11 12 13 14 15 16 17 18 19 20 21 22 23 24 25 26 27 28 29 30 31 32 33 34 35 36 37 38 39 40 41 42 43 44 45 46 47 48 49 50
000
ASHW40 PHFO 311143
RWRHI

WEATHER ROUNDUP FOR HAWAII
NATIONAL WEATHER SERVICE HONOLULU HI
100 AM HST FRI JUL 31 2015

THIS IS AN AUTOMATED REPORT THAT HAS NOT BEEN QUALITY CONTROLLED.

NOTE..."FAIR" INDICATES FEW OR NO CLOUDS BELOW 12,000 FEET WITH NO
SIGNIFICANT WEATHER AND/OR OBSTRUCTIONS TO VISIBILITY.

* - THESE SITES REPORT LIMITED FIELDS

HIZ001>004-311200-
KAUAI-NIIHAU-

CITY           SKY/WX    TMP DP  RH WIND       PRES   REMARKS
LIHUE APT      PTCLDY    79  72  79 NE16      30.03F
PORT ALLEN*    NOT AVBL
POIPU*           N/A     79 N/A N/A NE9G18      N/A
PRINCEVILLE*     N/A     75 N/A N/A MISG        N/A
KOKOLE POINT*  NOT AVBL
MOLOAA DAIRY*  NOT AVBL
WAIMEA HTS*      N/A     79  66  65 E6G17       N/A
PUU OPAE*        N/A     72  63  73 NW3G14      N/A
PUU LUA*       NOT AVBL
MAKAHA RIDGE*    N/A     73  70  88 CALM        N/A
$$

HIZ005>011-311200-
OAHU-

CITY           SKY/WX    TMP DP  RH WIND       PRES   REMARKS
HONOLULU       PTCLDY    81  69  67 NE13G22   29.99S
KALAELOA       MOCLDY    78  68  71 E3        30.01S
KANEOHE MCB    PTCLDY    79  71  76 E9        29.98F
WHEELER FIELD  MOCLDY    77  64  65 CALM      30.03F
BELLOWS*         N/A    N/A N/A N/A NE17        N/A
KAHUKU*          N/A    N/A N/A N/A NE8G16      N/A
WHEELER*       NOT AVBL
WAIANAE HARBOR NOT AVBL
DILLINGHAM*      N/A     75  66  73 MISG        N/A
KAHUKU TRN*      N/A     75  70  83 E9G20       N/A
KAWAILOA*        N/A     73  68  83 E10G20      N/A
KII*             N/A     79  73  83 E15G22      N/A
MAKUA RANGE*     N/A     75  66  73 NE1G13      N/A
OAHU FOREST NW   N/A     70  70 100 CALM        N/A
SCHOFIELD BRK*   N/A     73  66  78 MISG        N/A
SCHOFIELD S*   NOT AVBL
WAIANAE VLY*     N/A     91  81  70 MISG        N/A  HX 110
KUAOKALA*        N/A     75  66  73 NE8G18      N/A
HONOULIUULI*   NOT AVBL
MOKUOLOE IS*     N/A    N/A N/A N/A MISG        N/A
PALEHUA*         N/A     70  64  83 NE6G16      N/A
WAIAWA PHB*    NOT AVBL
$$

HIZ012>013-311200-
MOLOKAI-

CITY           SKY/WX    TMP DP  RH WIND       PRES   REMARKS
MOLOKAI AIRPT  CLEAR     77  70  79 NE10G20   30.01S
KALAUPAPA      NOT AVBL
MAKAPULAPAI*     N/A     79  72  78 E16G25      N/A
MOLOKAI 1*       N/A     81  73  78 NW1G8       N/A
PUU ALII*        N/A     61  60  98 CALM        N/A
$$

HIZ016-311200-
KAHOOLAWE-

CITY           SKY/WX    TMP DP  RH WIND       PRES   REMARKS
KAHOOLAWE*       N/A     73 N/A N/A SE24G36     N/A
HAKIOAWA*        N/A     75  71  88 MISG      30.38F
HONOKANAIA*      N/A     81  71  71 NE12G29   29.99S
KANELOA*         N/A     77  70  78 NE16G38   30.06S
KEALIALALO*      N/A     75  70  83 SE6G21    29.97
LUA MAKIKA*    NOT AVBL
$$

HIZ014>015-311200-
LANAI-

CITY           SKY/WX    TMP DP  RH WIND       PRES   REMARKS
LANAI CITY     MOCLDY    73  67  81 NE5       30.04F
LANAI 1*         N/A     73  70  88 E9G20       N/A
$$

HIZ017>028-311200-
MAUI-

CITY           SKY/WX    TMP DP  RH WIND       PRES   REMARKS
KAHULUI        CLEAR     79  71  76 NE15      29.99F
KAPALUA-W MAUI NOT AVBL
HANA AIRPORT   PTCLDY    73  73 100 S3        30.03F
HANA*            N/A     77 N/A N/A SE2         N/A
HALEAKALA SUMM NOT AVBL
MAALAEA BAY*   NOT AVBL
HALEAKALA*     NOT AVBL
KAUPO GAP*       N/A     68  64  88 SW5G13      N/A
KULA 1*          N/A    N/A N/A N/A E3          N/A
$$

HIZ023>026-311200-
BIG ISLAND OF HAWAII COAST AND LOWER SLOPES-

CITY           SKY/WX    TMP DP  RH WIND       PRES   REMARKS
KAILUA KONA    MOCLDY    82  70  65 NE7       29.92F
HILO           CLOUDY    75  72  90 CALM      29.99F
HONOKAA*       NOT AVBL
KAWAIHAE MWT*    N/A     82 N/A N/A E2G9        N/A
KAWAIHAE*        N/A     81 N/A N/A E7          N/A
SOUTH POINT*     N/A     75 N/A N/A NE14G23     N/A
UPOLU AIRPORT*   N/A    N/A N/A N/A NE20G28     N/A
KAMUELA*       CLOUDY    68  66  94 NE16      30.07F
HAKALAU*         N/A     48  46  93 W3          N/A
KALOKO-HONOKO*   N/A     81  72  74 SE3       29.92F
PALI 2*          N/A     68  64  88 NE13G22     N/A
KEALAKOMO*       N/A     82  70  65 NE14G22     N/A
KAUPULEHU*       N/A     73  66  78 SE7         N/A
KAPAPALA*        N/A     64  61  91 N3G9        N/A
LOWER KAHUKU*    N/A     64  64 100 N2G9        N/A
PUHE CS*         N/A     81  68  65 E3G12       N/A
PUHO CS*         N/A     77  71  81 E2          N/A
PTA KEAMUKU*     N/A     64  61  88 CALM        N/A
WAIKOLOA*        N/A     75  66  73 E14G24      N/A
$$

HIZ027>028-311200-
BIG ISLAND OF HAWAII INTERIOR AND SUMMMITS-

CITY           SKY/WX    TMP DP  RH WIND       PRES   REMARKS
BRADSHAW FIELD CLOUDY    54  47  78 SE6       30.32F
MK VISITOR CEN NOT AVBL
MAUNA KEA*     NOT AVBL
MAUNA LOA*       N/A    N/A N/A N/A MISG        N/A
MAUNA LOA 1*   NOT AVBL
PTA KIPUKA*      N/A     55  55 100 E2G8        N/A
PTA RANGE 17*    N/A     61  55  82 E12G18      N/A
PTA WEST*        N/A     72  70  94 SE2         N/A
NENE CABIN*      N/A     55  43  62 E6G13       N/A
AHUMOA*          N/A     54  43  66 E3          N/A
PTA PORTABLE*  NOT AVBL
PUU MALI*        N/A    N/A N/A N/A E14G21      N/A
$$

HIC003-311200-
NORTHWEST ISLANDS-

CITY           SKY/WX    TMP DP  RH WIND       PRES   REMARKS
MIDWAY ISLAND  CLEAR     79  72  78 E15       30.03S
MIDWAY NOS*    NOT AVBL
FRENCH FRIGATE NOT AVBL
$$

PHZ110>124-180-311200-
BUOY REPORTS

STATION/POSITION TIME  TEMP    WIND        PRES    WAVE   SWELL
                       AIR SEA DIR/SP/G            HT/PER HT/DIR
                 (UTC) (F)     (DEG/KT/KT) (MB)    (FT/S) (FT/D)
BUOY 51001       NOT AVBL
BUOY 51101       1100   80 81   90/ 21/ 27 1015.7F   6/10   3/140
BUOY 51100       NOT AVBL
BUOY 51002       1100   81 82   80/ 19/ 23 1012.2F   8/ 7   3/340
BUOY 51003       1100   82 83   80/ 16/ 19 1014.1F   6/ 7   3
BUOY 51004       1028   81 81   60/ 16/ 19 1013.3F   7/ 8   3/ 80
BARBERS PT BUOY  NOT AVBL
WAIMEA BAY BUOY  1100      81                N/A     4/ 6
KAILUA BAY BUOY  1100      81                N/A     6/ 7   2/110
LANAI BUOY       NOT AVBL
BARBERS PT 2     1100      82                N/A     4/11   2/200
PAUWELA MAUI     1100      79                N/A     5/ 7   2/ 80
HILO             NOT AVBL
KANEOHE BAY BUOY 1100      80                N/A     5/ 7
HANALEI KAUAI    1100      81                N/A     5/ 6
KAHULUI HARBOR   1100   79 82   40/ 11/ 17 1015.3F
HONOLULU HARBOR  1100   81 82   50/  3/  7 1015.5F
KILO NALU        NOT AVBL
HILO HARBOR      1100   76 78  190/  3/  4 1015.2F
MOKUOLOE         1100   81 84   70/ 10/ 14 1016.3F
NAWILIWILI       1100   80 84   60/ 13/ 16 1016.1F
WHOTS BUOY       NOT AVBL
BUOY 51028       NOT AVBL
$$

......................KEY........................................
  SKY/WX - SKY CONDITIONS/PRESENT WEATHER
  TMP    - TEMPERATURE IN FAHRENHEIT
  DWPT   - DEWPOINT IN FAHRENHEIT
  RH     - RELATIVE HUMIDITY IN PERCENT
  WIND   - DIRECTION AND SPEED /MPH FOR ISLANDS...KTS FOR BUOYS/
  PRES   - MEAN SEA LEVEL PRESSURE IN INCHES OF HG
  VSB    - VISIBILITY IN MILES
  HX     - HEAT INDEX
  WCI    - WIND CHILL INDEX
  VRB    - VARIABLE WIND DIRECTION
  N/A    - NOT AVAILABLE



USA.gov is the U.S. government's official web portal to all federal, state and local government web resources and services.